Temp
-12 -12 -12 -12 -12 -13 -13 -12 -12 -12 -12 -12 -12 -12 -12 -12 -12 -12 -11 -11 -11 -11 -11 -11 -11 -11 -10 -10 -10 -11 -11 -11 -11 -11 -11 -11 -11 -11 -11 -11 -11 -11 -11 -11 -11 -11 -11 -11 -11 -11 -11 -11 -11 -11 -11 -11 -11 -11 -11 -11 -11 -11 -11 -12 -12 -12 -12 -12 -12 -13 -13 -13 -13 -13
-12 -12 -12 -12 -12 -12 -13 -12 -12 -12 -12 -12 -12 -12 -12 -12 -12 -12 -12 -11 -11 -11 -11 -11 -11 -11 -11 -11 -11 -11 -11 -11 -11 -11 -11 -11 -11 -11 -11 -11 -11 -11 -11 -11 -11 -11 -11 -11 -11 -11 -11 -11 -11 -11 -11 -11 -11 -11 -11 -11 -11 -11 -11 -12 -12 -12 -12 -12 -12 -13 -13 -13 -13 -13
-12 -12 -13 -12 -12 -12 -12 -12 -12 -12 -12 -12 -12 -12 -12 -12 -12 -12 -12 -11 -11 -11 -11 -11 -11 -11 -11 -11 -11 -11 -11 -11 -11 -11 -11 -11 -11 -11 -11 -11 -11 -11 -11 -11 -11 -11 -11 -11 -11 -11 -11 -11 -11 -11 -11 -11 -11 -11 -11 -11 -11 -11 -12 -12 -12 -12 -13 -12 -13 -13 -13 -13 -13 -14
-13 -13 -13 -13 -13 -12 -12 -12 -12 -12 -12 -12 -12 -12 -12 -12 -12 -12 -12 -12 -11 -11 -11 -11 -11 -11 -11 -11 -11 -11 -11 -11 -11 -11 -11 -11 -11 -11 -11 -11 -11 -11 -11 -11 -11 -11 -11 -11 -11 -11 -11 -11 -11 -11 -11 -11 -11 -11 -12 -12 -12 -12 -12 -12 -12 -13 -13 -13 -13 -13 -13 -13 -14 -14
-14 -13 -13 -13 -13 -13 -13 -12 -12 -12 -13 -13 -13 -13 -13 -12 -12 -12 -12 -12 -12 -12 -12 -11 -11 -12 -11 -12 -12 -11 -11 -11 -11 -11 -11 -11 -11 -11 -11 -11 -11 -11 -11 -11 -11 -11 -11 -11 -11 -11 -11 -11 -11 -11 -11 -11 -12 -12 -12 -12 -12 -12 -12 -12 -13 -13 -13 -13 -13 -13 -13 -14 -14 -14
-15 -14 -13 -13 -14 -14 -13 -13 -13 -12 -13 -13 -13 -13 -13 -13 -13 -13 -12 -12 -12 -12 -12 -12 -11 -12 -12 -12 -12 -12 -12 -12 -11 -12 -12 -11 -11 -11 -11 -11 -11 -11 -11 -11 -11 -11 -11 -11 -11 -11 -11 -11 -11 -11 -11 -12 -12 -12 -12 -12 -12 -12 -13 -13 -13 -13 -13 -13 -13 -13 -13 -14 -14 -14
-15 -15 -14 -14 -14 -14 -14 -13 -13 -13 -13 -13 -13 -13 -14 -13 -13 -13 -13 -12 -12 -12 -12 -12 -11 -11 -12 -12 -12 -12 -12 -12 -12 -12 -12 -12 -12 -12 -12 -12 -12 -12 -12 -12 -12 -11 -11 -11 -11 -12 -11 -11 -11 -12 -12 -12 -12 -12 -12 -12 -12 -13 -13 -13 -13 -13 -13 -13 -13 -13 -13 -14 -14 -14
-16 -16 -15 -15 -14 -14 -14 -13 -13 -13 -13 -13 -12 -13 -13 -14 -14 -14 -13 -12 -12 -12 -13 -12 -12 -12 -12 -12 -12 -12 -12 -11 -12 -12 -12 -12 -12 -12 -12 -12 -12 -12 -12 -12 -12 -12 -12 -12 -12 -12 -12 -12 -12 -12 -12 -12 -12 -12 -12 -13 -13 -13 -13 -13 -13 -13 -13 -13 -13 -13 -14 -14 -14 -14
-16 -16 -16 -16 -15 -14 -14 -14 -14 -13 -13 -13 -13 -13 -13 -13 -14 -14 -14 -13 -12 -12 -13 -13 -12 -12 -11 -12 -12 -12 -12 -11 -12 -12 -12 -12 -12 -12 -12 -12 -12 -12 -12 -12 -12 -12 -12 -12 -12 -12 -12 -12 -12 -12 -12 -12 -13 -13 -13 -13 -13 -13 -13 -14 -14 -13 -13 -13 -13 -14 -14 -14 -14 -14
-16 -16 -16 -16 -16 -15 -14 -14 -14 -14 -13 -13 -13 -13 -13 -13 -13 -13 -14 -13 -13 -12 -12 -13 -13 -12 -11 -12 -12 -12 -12 -12 -12 -12 -13 -13 -13 -13 -13 -13 -13 -13 -13 -12 -12 -12 -12 -12 -12 -12 -12 -12 -12 -12 -12 -13 -13 -13 -13 -13 -13 -13 -14 -14 -14 -14 -14 -14 -14 -14 -14 -14 -14 -14
-16 -16 -16 -16 -16 -16 -15 -15 -14 -14 -14 -13 -13 -13 -13 -13 -13 -13 -13 -13 -13 -13 -13 -13 -13 -12 -11 -11 -12 -12 -12 -12 -12 -12 -12 -13 -13 -13 -14 -14 -13 -13 -13 -13 -13 -13 -12 -12 -12 -12 -12 -12 -12 -13 -13 -13 -13 -13 -13 -13 -13 -14 -14 -14 -14 -14 -14 -14 -14 -14 -14 -14 -14 -14
-16 -16 -16 -16 -16 -16 -16 -15 -15 -15 -14 -14 -14 -14 -13 -14 -14 -13 -13 -13 -13 -13 -13 -13 -12 -12 -11 -11 -12 -12 -12 -12 -12 -12 -13 -13 -13 -14 -14 -14 -14 -13 -13 -13 -13 -13 -13 -13 -13 -12 -12 -12 -13 -13 -13 -13 -13 -13 -13 -13 -13 -14 -14 -14 -14 -14 -14 -14 -14 -14 -14 -14 -14 -14
-16 -16 -16 -16 -16 -16 -16 -15 -15 -15 -15 -14 -14 -14 -14 -14 -14 -13 -13 -13 -13 -13 -13 -13 -12 -12 -11 -11 -12 -12 -12 -12 -12 -13 -13 -13 -13 -13 -14 -14 -14 -13 -13 -13 -13 -13 -13 -13 -13 -12 -12 -13 -13 -13 -14 -14 -13 -13 -13 -13 -13 -14 -14 -14 -14 -14 -14 -14 -14 -14 -14 -14 -14 -14
-15 -16 -16 -16 -16 -16 -16 -15 -15 -15 -15 -15 -14 -14 -14 -14 -14 -14 -13 -13 -13 -13 -13 -13 -12 -12 -11 -11 -12 -13 -12 -12 -13 -13 -13 -13 -13 -13 -14 -14 -14 -13 -14 -13 -13 -13 -13 -13 -13 -13 -13 -13 -14 -14 -14 -14 -13 -13 -13 -13 -14 -14 -14 -14 -14 -14 -14 -14 -14 -14 -14 -14 -14 -14
-16 -16 -16 -16 -16 -16 -16 -15 -15 -15 -15 -15 -14 -14 -14 -14 -14 -14 -13 -13 -14 -14 -13 -13 -12 -12 -11 -12 -13 -13 -13 -13 -13 -13 -13 -13 -13 -13 -14 -14 -14 -14 -14 -14 -13 -13 -13 -13 -13 -13 -13 -14 -14 -14 -14 -14 -13 -13 -14 -14 -14 -14 -14 -14 -14 -14 -14 -14 -14 -14 -14 -14 -14 -14
-16 -16 -16 -16 -16 -16 -16 -16 -15 -15 -15 -15 -15 -15 -14 -15 -15 -14 -13 -14 -14 -14 -14 -13 -12 -12 -12 -12 -13 -13 -13 -13 -13 -13 -13 -13 -13 -13 -14 -14 -14 -14 -14 -13 -13 -13 -13 -13 -13 -13 -14 -14 -14 -14 -14 -14 -14 -14 -14 -14 -14 -14 -14 -14 -14 -14 -14 -14 -14 -14 -14 -14 -14 -14
-16 -16 -16 -16 -16 -16 -16 -16 -16 -15 -15 -15 -15 -15 -15 -15 -15 -14 -14 -14 -14 -14 -14 -13 -13 -12 -12 -13 -13 -13 -13 -13 -13 -13 -13 -13 -13 -13 -13 -14 -14 -14 -14 -13 -13 -13 -13 -13 -13 -13 -13 -14 -14 -14 -14 -14 -14 -14 -14 -14 -14 -14 -14 -14 -14 -14 -14 -14 -14 -14 -14 -14 -14 -14
-16 -16 -16 -16 -16 -16 -16 -16 -16 -15 -15 -15 -15 -15 -15 -15 -14 -14 -14 -14 -14 -14 -13 -13 -13 -12 -12 -13 -13 -14 -14 -13 -13 -13 -13 -13 -13 -13 -13 -13 -14 -13 -13 -13 -13 -13 -14 -14 -14 -14 -13 -14 -14 -14 -14 -14 -14 -14 -14 -14 -14 -14 -14 -14 -14 -14 -14 -14 -14 -14 -14 -14 -14 -14
-16 -16 -16 -16 -16 -16 -16 -16 -16 -16 -15 -15 -15 -15 -14 -15 -14 -14 -14 -14 -15 -14 -14 -14 -13 -13 -13 -13 -14 -14 -14 -13 -13 -13 -12 -12 -13 -13 -13 -13 -13 -13 -13 -13 -13 -13 -14 -14 -14 -14 -14 -14 -14 -14 -14 -14 -14 -14 -14 -14 -14 -14 -14 -14 -14 -14 -14 -14 -14 -14 -14 -14 -14 -14
-16 -16 -16 -16 -16 -16 -16 -16 -16 -16 -16 -15 -15 -14 -14 -14 -14 -14 -14 -15 -15 -15 -14 -14 -14 -13 -13 -14 -14 -14 -14 -13 -13 -12 -12 -13 -13 -13 -13 -13 -13 -13 -13 -13 -14 -13 -14 -14 -14 -14 -14 -14 -14 -14 -14 -14 -14 -14 -14 -14 -14 -14 -14 -14 -14 -14 -14 -14 -14 -14 -14 -14 -14 -14
-17 -17 -16 -16 -16 -16 -16 -16 -16 -16 -16 -15 -15 -14 -14 -14 -14 -14 -14 -15 -15 -15 -14 -14 -14 -14 -14 -14 -14 -13 -13 -13 -13 -12 -12 -13 -13 -13 -13 -13 -13 -13 -13 -14 -14 -13 -14 -14 -14 -14 -14 -14 -14 -14 -14 -14 -14 -14 -14 -14 -14 -14 -14 -14 -14 -14 -14 -14 -14 -14 -14 -14 -14 -14
-17 -17 -16 -16 -16 -16 -16 -16 -16 -16 -16 -16 -15 -14 -14 -14 -14 -14 -14 -14 -15 -15 -15 -14 -14 -14 -14 -14 -13 -13 -13 -13 -13 -12 -13 -13 -13 -13 -13 -13 -13 -13 -13 -14 -14 -14 -14 -14 -14 -14 -14 -14 -14 -14 -14 -14 -14 -14 -14 -14 -14 -14 -14 -14 -14 -14 -14 -14 -14 -14 -14 -14 -14 -14
-16 -16 -16 -16 -16 -16 -16 -16 -16 -16 -16 -16 -15 -15 -14 -14 -14 -14 -14 -14 -14 -15 -15 -15 -14 -14 -14 -14 -14 -14 -13 -13 -13 -13 -13 -13 -13 -12 -13 -13 -13 -13 -13 -14 -14 -14 -14 -14 -14 -14 -14 -14 -14 -14 -14 -14 -14 -14 -14 -14 -14 -14 -14 -14 -14 -14 -14 -14 -14 -14 -14 -14 -14 -14
-16 -16 -16 -16 -16 -16 -16 -16 -16 -16 -16 -16 -16 -15 -15 -15 -14 -14 -14 -14 -14 -15 -15 -15 -15 -14 -14 -14 -14 -14 -14 -13 -13 -13 -13 -13 -12 -12 -13 -13 -13 -13 -13 -14 -14 -14 -14 -14 -14 -14 -14 -14 -14 -14 -14 -14 -14 -14 -14 -14 -14 -14 -14 -14 -14 -14 -14 -14 -14 -14 -14 -14 -14 -14
-16 -16 -16 -16 -16 -16 -16 -16 -16 -16 -16 -16 -16 -16 -16 -15 -14 -14 -14 -14 -14 -15 -15 -15 -15 -15 -14 -14 -14 -14 -14 -13 -13 -13 -13 -12 -12 -13 -13 -13 -13 -13 -14 -14 -14 -14 -14 -14 -14 -14 -14 -14 -14 -14 -14 -14 -14 -14 -14 -14 -14 -14 -15 -14 -14 -14 -15 -15 -15 -14 -14 -14 -14 -14
-16 -16 -16 -15 -16 -16 -16 -16 -16 -16 -16 -16 -17 -17 -17 -15 -14 -14 -15 -15 -14 -15 -15 -15 -15 -15 -15 -15 -14 -14 -14 -13 -13 -13 -13 -13 -13 -13 -13 -13 -13 -13 -14 -14 -14 -14 -14 -14 -14 -14 -14 -14 -14 -14 -14 -14 -14 -15 -14 -14 -14 -14 -14 -14 -15 -15 -15 -15 -15 -14 -14 -14 -14 -15
-16 -16 -15 -15 -15 -15 -16 -16 -16 -16 -16 -17 -17 -17 -17 -16 -15 -15 -15 -15 -14 -14 -15 -15 -15 -15 -15 -15 -15 -14 -14 -13 -13 -13 -13 -13 -13 -13 -13 -13 -13 -14 -14 -14 -14 -14 -14 -14 -14 -14 -14 -14 -14 -14 -14 -14 -14 -15 -15 -14 -14 -14 -15 -14 -15 -15 -15 -15 -14 -14 -14 -14 -15 -15
-15 -15 -15 -15 -15 -15 -16 -16 -16 -16 -16 -17 -17 -17 -16 -16 -16 -16 -16 -15 -14 -14 -15 -15 -15 -15 -15 -15 -15 -14 -14 -14 -13 -13 -13 -14 -13 -13 -13 -13 -14 -14 -14 -14 -14 -14 -14 -14 -14 -14 -14 -14 -14 -14 -14 -14 -14 -14 -15 -15 -15 -15 -15 -15 -15 -15 -15 -15 -15 -14 -15 -15 -15 -15
-16 -16 -15 -15 -15 -15 -15 -16 -16 -16 -17 -17 -17 -17 -17 -17 -17 -16 -16 -15 -15 -15 -15 -15 -15 -15 -15 -15 -15 -14 -14 -14 -14 -14 -14 -14 -13 -13 -14 -14 -14 -14 -14 -14 -14 -14 -14 -14 -15 -15 -14 -14 -14 -14 -14 -14 -14 -15 -15 -15 -15 -15 -15 -15 -15 -15 -15 -15 -15 -15 -15 -15 -15 -15
-16 -16 -16 -15 -15 -15 -15 -16 -16 -16 -17 -17 -17 -17 -17 -17 -17 -17 -16 -16 -15 -15 -15 -15 -15 -15 -15 -15 -15 -14 -14 -14 -14 -14 -14 -13 -14 -14 -14 -14 -14 -14 -14 -14 -14 -14 -15 -15 -15 -15 -15 -14 -14 -14 -14 -14 -14 -15 -15 -15 -15 -15 -15 -15 -15 -15 -15 -15 -15 -15 -15 -15 -15 -15
-17 -16 -16 -16 -16 -16 -16 -16 -16 -17 -17 -17 -17 -17 -17 -17 -17 -17 -17 -16 -16 -15 -15 -15 -15 -15 -15 -15 -15 -15 -15 -15 -14 -14 -13 -14 -14 -14 -14 -14 -14 -14 -14 -14 -14 -14 -15 -15 -15 -15 -15 -15 -15 -15 -14 -14 -14 -15 -15 -15 -15 -15 -15 -15 -15 -15 -15 -15 -15 -15 -15 -15 -15 -15
-17 -17 -17 -17 -17 -16 -17 -17 -17 -17 -17 -17 -17 -17 -17 -17 -17 -17 -17 -17 -16 -15 -15 -15 -15 -15 -15 -15 -15 -15 -15 -15 -14 -14 -14 -14 -14 -14 -14 -14 -14 -14 -14 -14 -14 -15 -15 -15 -15 -15 -15 -15 -15 -15 -15 -15 -15 -15 -15 -15 -15 -15 -15 -15 -15 -15 -15 -15 -15 -15 -15 -15 -15 -15
-17 -17 -18 -18 -17 -17 -17 -17 -17 -17 -17 -17 -18 -17 -17 -17 -17 -17 -17 -17 -16 -16 -15 -15 -15 -15 -15 -15 -15 -15 -15 -15 -14 -14 -14 -14 -14 -15 -14 -14 -14 -14 -14 -15 -15 -15 -15 -15 -15 -15 -15 -15 -15 -15 -15 -15 -15 -15 -15 -15 -15 -15 -15 -15 -15 -15 -15 -15 -15 -15 -15 -15 -15 -15
-17 -17 -18 -18 -18 -18 -18 -17 -17 -17 -17 -18 -18 -17 -17 -17 -17 -17 -17 -17 -17 -16 -16 -16 -15 -15 -15 -15 -15 -15 -15 -15 -14 -14 -14 -15 -15 -15 -15 -14 -14 -14 -14 -15 -15 -15 -15 -15 -15 -15 -15 -15 -15 -15 -15 -16 -16 -16 -15 -15 -15 -15 -15 -16 -16 -16 -16 -16 -15 -15 -15 -15 -15 -15
-17 -17 -18 -18 -18 -18 -18 -17 -17 -17 -17 -17 -17 -17 -17 -17 -17 -17 -17 -17 -17 -17 -16 -16 -15 -15 -16 -16 -16 -15 -15 -15 -15 -15 -15 -15 -15 -15 -15 -15 -14 -14 -15 -15 -15 -15 -15 -15 -15 -15 -15 -15 -15 -16 -16 -16 -16 -16 -16 -15 -15 -16 -16 -16 -16 -16 -16 -15 -15 -15 -15 -15 -16 -16
-17 -17 -17 -17 -17 -17 -17 -17 -17 -17 -17 -17 -17 -17 -17 -18 -18 -18 -18 -17 -17 -17 -17 -16 -16 -16 -16 -16 -16 -15 -16 -15 -15 -15 -15 -15 -15 -15 -15 -15 -15 -15 -15 -15 -15 -15 -15 -15 -15 -15 -15 -16 -16 -16 -16 -16 -16 -16 -16 -16 -16 -16 -16 -16 -16 -16 -15 -15 -15 -16 -16 -16 -16 -16
-17 -17 -17 -17 -17 -17 -17 -17 -17 -17 -17 -17 -17 -17 -17 -18 -18 -18 -18 -18 -17 -17 -17 -16 -16 -16 -16 -16 -16 -16 -16 -16 -15 -15 -15 -15 -15 -15 -15 -15 -15 -15 -15 -15 -15 -15 -15 -16 -16 -16 -16 -16 -16 -16 -16 -16 -16 -16 -16 -16 -16 -16 -16 -16 -16 -15 -15 -15 -15 -16 -16 -16 -17 -17
-17 -17 -17 -17 -17 -17 -17 -17 -17 -17 -17 -17 -17 -17 -17 -17 -17 -17 -18 -18 -18 -17 -17 -16 -16 -16 -16 -16 -16 -16 -16 -15 -16 -15 -15 -15 -15 -15 -15 -15 -15 -15 -15 -15 -15 -16 -16 -16 -16 -16 -16 -16 -16 -16 -16 -16 -16 -16 -16 -16 -16 -16 -16 -16 -15 -15 -15 -15 -16 -16 -16 -17 -17 -17
-17 -17 -17 -17 -17 -17 -17 -17 -17 -17 -17 -17 -17 -17 -17 -17 -17 -17 -18 -18 -17 -17 -17 -16 -17 -17 -17 -16 -16 -16 -15 -15 -15 -15 -15 -15 -15 -15 -15 -15 -15 -15 -15 -16 -16 -16 -16 -16 -15 -16 -16 -16 -16 -16 -16 -16 -16 -16 -16 -16 -16 -16 -16 -16 -16 -16 -16 -16 -16 -16 -17 -17 -17 -18
-17 -17 -17 -17 -17 -17 -17 -17 -17 -17 -17 -17 -17 -17 -17 -17 -17 -17 -18 -18 -17 -17 -17 -17 -17 -17 -17 -16 -16 -15 -15 -15 -15 -15 -15 -15 -15 -15 -15 -15 -15 -16 -16 -16 -16 -16 -15 -15 -15 -16 -16 -16 -16 -16 -16 -16 -16 -16 -16 -16 -16 -16 -16 -16 -16 -16 -16 -16 -17 -17 -17 -17 -18 -18
-17 -17 -17 -17 -17 -17 -17 -17 -17 -17 -17 -17 -17 -17 -17 -17 -17 -18 -18 -18 -17 -17 -17 -17 -17 -17 -16 -16 -15 -15 -15 -15 -15 -15 -15 -15 -15 -15 -15 -15 -16 -16 -16 -16 -16 -15 -15 -15 -16 -16 -16 -16 -16 -16 -16 -16 -16 -16 -16 -16 -16 -16 -16 -16 -16 -16 -16 -17 -17 -17 -18 -18 -18 -19
-17 -17 -17 -17 -17 -18 -18 -17 -17 -17 -17 -17 -17 -18 -18 -18 -18 -18 -18 -18 -17 -17 -17 -17 -17 -16 -16 -15 -15 -15 -15 -15 -16 -16 -15 -15 -15 -15 -15 -16 -16 -16 -16 -16 -15 -15 -15 -15 -16 -16 -16 -16 -16 -16 -16 -16 -16 -16 -16 -16 -16 -16 -16 -16 -16 -16 -17 -17 -17 -18 -18 -18 -19 -19
-18 -18 -18 -18 -18 -18 -18 -17 -17 -17 -17 -18 -18 -18 -18 -18 -18 -18 -18 -18 -17 -16 -16 -16 -16 -16 -15 -15 -15 -15 -15 -15 -16 -16 -15 -15 -15 -15 -16 -16 -16 -16 -16 -16 -16 -16 -16 -16 -16 -16 -16 -16 -16 -16 -16 -16 -16 -16 -16 -16 -16 -16 -16 -16 -17 -17 -17 -17 -18 -18 -18 -19 -19 -19
-18 -18 -18 -18 -18 -18 -18 -17 -17 -17 -18 -18 -18 -18 -18 -18 -18 -18 -17 -17 -17 -16 -16 -16 -16 -15 -16 -16 -16 -16 -16 -16 -16 -15 -15 -15 -15 -16 -16 -16 -16 -16 -16 -16 -16 -16 -16 -16 -16 -16 -16 -16 -16 -16 -16 -16 -16 -16 -16 -16 -16 -17 -17 -17 -17 -17 -18 -18 -18 -18 -19 -19 -19 -19
-18 -18 -18 -18 -18 -18 -18 -18 -18 -18 -18 -18 -18 -18 -18 -18 -17 -17 -17 -17 -17 -17 -16 -16 -16 -16 -15 -15 -15 -15 -16 -16 -16 -15 -15 -15 -15 -16 -16 -16 -16 -16 -16 -16 -16 -16 -16 -16 -16 -16 -16 -16 -16 -16 -16 -16 -16 -16 -16 -16 -16 -17 -17 -17 -17 -18 -18 -19 -19 -19 -19 -19 -20 -20
Height
5744 5746 5749 5751 5754 5757 5759 5761 5763 5764 5766 5768 5770 5771 5773 5774 5775 5776 5777 5780 5785 5789 5791 5792 5793 5794 5798 5802 5804 5804 5806 5806 5804 5806 5808 5809 5810 5810 5810 5811 5812 5812 5812 5812 5813 5812 5812 5812 5811 5810 5810 5809 5808 5807 5806 5805 5804 5803 5801 5800 5799 5798 5796 5794 5792 5790 5788 5787 5785 5783 5781 5779 5778 5776
5737 5739 5742 5744 5746 5750 5752 5754 5756 5757 5759 5762 5764 5766 5767 5769 5770 5771 5773 5774 5777 5782 5784 5785 5787 5789 5793 5798 5799 5799 5801 5800 5800 5802 5803 5804 5805 5805 5806 5807 5808 5808 5809 5809 5809 5808 5808 5808 5807 5807 5806 5805 5804 5803 5803 5802 5801 5799 5798 5797 5795 5794 5792 5790 5788 5786 5784 5783 5781 5779 5777 5775 5774 5772
5730 5732 5734 5736 5739 5742 5745 5748 5750 5751 5753 5755 5758 5760 5761 5763 5765 5767 5767 5767 5771 5775 5776 5778 5783 5785 5787 5792 5793 5794 5795 5795 5795 5798 5800 5800 5800 5800 5801 5803 5804 5804 5805 5805 5805 5805 5804 5804 5803 5803 5802 5801 5800 5800 5799 5798 5797 5796 5794 5793 5792 5790 5788 5787 5785 5783 5781 5779 5777 5775 5773 5772 5770 5768
5723 5725 5727 5729 5732 5735 5737 5740 5743 5746 5747 5748 5751 5753 5755 5757 5759 5761 5761 5762 5766 5769 5768 5771 5777 5779 5781 5786 5786 5787 5789 5790 5790 5794 5796 5796 5795 5796 5798 5799 5800 5801 5801 5801 5801 5801 5800 5800 5799 5798 5798 5797 5797 5796 5795 5794 5793 5792 5791 5789 5788 5786 5785 5783 5781 5779 5778 5776 5774 5772 5770 5768 5766 5764
5715 5718 5720 5722 5725 5727 5730 5733 5736 5739 5742 5743 5744 5747 5748 5751 5754 5756 5756 5758 5761 5763 5762 5765 5770 5771 5775 5779 5778 5780 5784 5785 5786 5791 5792 5790 5789 5792 5794 5795 5796 5797 5797 5797 5797 5797 5796 5796 5795 5794 5794 5794 5793 5793 5792 5791 5789 5788 5787 5785 5784 5782 5781 5779 5777 5775 5774 5772 5770 5768 5766 5764 5762 5760
5707 5710 5712 5715 5717 5720 5722 5725 5728 5732 5735 5737 5739 5742 5743 5745 5748 5751 5753 5754 5757 5759 5758 5759 5761 5764 5770 5773 5772 5774 5779 5779 5781 5786 5787 5784 5785 5788 5789 5790 5792 5792 5792 5793 5792 5792 5792 5792 5791 5790 5790 5790 5789 5789 5788 5786 5785 5784 5783 5781 5780 5778 5777 5775 5773 5772 5770 5768 5766 5764 5762 5760 5758 5756
5699 5702 5705 5707 5709 5712 5715 5718 5721 5724 5727 5730 5734 5737 5738 5739 5742 5744 5747 5749 5752 5754 5754 5754 5755 5759 5765 5768 5767 5768 5771 5773 5776 5780 5780 5779 5781 5784 5785 5786 5787 5788 5788 5788 5788 5788 5788 5787 5787 5786 5786 5786 5785 5784 5784 5782 5781 5779 5778 5777 5776 5774 5773 5771 5769 5768 5766 5764 5762 5760 5758 5756 5754 5752
5692 5694 5697 5699 5702 5704 5707 5711 5714 5716 5719 5722 5726 5730 5733 5735 5736 5738 5741 5743 5745 5747 5748 5748 5751 5755 5758 5760 5762 5763 5764 5767 5771 5773 5774 5774 5777 5779 5780 5781 5783 5783 5782 5783 5783 5783 5783 5783 5783 5782 5782 5782 5781 5780 5780 5778 5777 5775 5774 5773 5771 5770 5768 5767 5765 5764 5762 5760 5758 5756 5753 5751 5749 5748
5685 5687 5689 5692 5694 5696 5700 5703 5706 5709 5711 5714 5718 5722 5725 5729 5731 5733 5735 5738 5739 5741 5742 5744 5746 5748 5752 5754 5756 5758 5758 5761 5765 5767 5768 5769 5772 5774 5775 5776 5777 5777 5777 5778 5779 5779 5778 5778 5778 5778 5778 5777 5777 5776 5775 5774 5772 5771 5770 5769 5767 5766 5764 5763 5761 5759 5758 5756 5753 5751 5749 5747 5745 5743
5678 5679 5681 5684 5686 5689 5692 5695 5698 5701 5703 5706 5710 5713 5717 5721 5724 5727 5730 5732 5733 5735 5738 5741 5741 5741 5746 5750 5752 5754 5754 5756 5758 5760 5761 5763 5765 5768 5770 5770 5770 5771 5772 5773 5774 5774 5773 5773 5773 5773 5773 5773 5772 5772 5771 5769 5768 5766 5766 5765 5763 5761 5760 5758 5757 5755 5753 5751 5749 5747 5745 5742 5741 5739
5669 5671 5673 5675 5678 5682 5685 5687 5690 5693 5695 5699 5702 5705 5709 5713 5717 5721 5724 5725 5728 5730 5733 5735 5736 5736 5740 5745 5748 5749 5749 5751 5752 5753 5755 5757 5760 5762 5764 5764 5764 5766 5767 5768 5768 5769 5769 5768 5769 5769 5769 5768 5768 5767 5766 5765 5763 5762 5762 5760 5758 5757 5756 5754 5753 5751 5749 5747 5745 5743 5741 5738 5737 5734
5661 5663 5664 5667 5670 5674 5678 5680 5682 5684 5687 5691 5695 5698 5702 5705 5709 5714 5717 5718 5721 5725 5728 5729 5730 5731 5734 5739 5742 5743 5744 5747 5748 5749 5751 5754 5755 5756 5757 5758 5759 5760 5762 5763 5764 5764 5764 5763 5764 5764 5764 5764 5764 5763 5762 5760 5759 5758 5758 5756 5754 5753 5751 5750 5749 5747 5745 5743 5741 5739 5736 5734 5732 5730
5653 5655 5657 5659 5662 5666 5670 5673 5675 5677 5679 5683 5687 5691 5694 5697 5701 5706 5710 5711 5713 5719 5723 5724 5723 5724 5727 5733 5738 5739 5740 5743 5744 5745 5747 5748 5749 5750 5751 5753 5754 5755 5757 5758 5759 5759 5758 5758 5759 5759 5760 5760 5759 5758 5757 5755 5755 5754 5753 5752 5750 5748 5747 5746 5744 5742 5740 5739 5737 5735 5732 5730 5728 5725
5644 5647 5649 5651 5654 5657 5661 5664 5667 5669 5672 5675 5679 5684 5687 5690 5694 5699 5702 5704 5706 5712 5717 5717 5716 5718 5722 5729 5734 5735 5736 5737 5738 5740 5742 5742 5743 5745 5746 5748 5749 5751 5752 5753 5753 5753 5753 5753 5754 5755 5756 5756 5755 5754 5753 5751 5750 5750 5749 5748 5746 5744 5743 5742 5740 5738 5736 5734 5732 5730 5728 5726 5723 5721
5636 5638 5641 5643 5645 5648 5652 5656 5659 5662 5664 5668 5672 5676 5680 5683 5687 5692 5695 5697 5700 5705 5709 5710 5710 5713 5718 5725 5729 5730 5731 5732 5733 5735 5736 5736 5738 5740 5741 5743 5744 5746 5747 5747 5747 5748 5748 5749 5750 5751 5752 5751 5750 5749 5748 5747 5746 5746 5745 5743 5742 5740 5739 5737 5735 5733 5732 5730 5728 5726 5724 5721 5718 5716
5627 5630 5632 5635 5637 5640 5644 5648 5650 5654 5657 5660 5664 5668 5672 5676 5680 5684 5687 5690 5694 5698 5701 5703 5705 5708 5714 5720 5723 5725 5726 5728 5729 5730 5730 5731 5733 5735 5736 5738 5739 5740 5741 5741 5742 5743 5743 5744 5745 5746 5747 5747 5746 5745 5743 5742 5742 5741 5740 5738 5737 5735 5734 5732 5730 5729 5727 5726 5724 5722 5719 5717 5714 5711
5618 5621 5623 5626 5629 5633 5636 5639 5642 5646 5649 5653 5656 5660 5664 5668 5672 5676 5680 5684 5688 5692 5694 5697 5699 5702 5708 5715 5719 5719 5720 5721 5723 5723 5725 5726 5728 5729 5731 5732 5734 5735 5735 5736 5737 5738 5739 5739 5740 5741 5742 5743 5743 5740 5738 5738 5738 5736 5735 5734 5733 5731 5729 5728 5726 5725 5723 5721 5720 5717 5715 5712 5709 5706
5608 5612 5615 5618 5622 5625 5627 5631 5634 5637 5641 5645 5648 5652 5656 5660 5664 5668 5673 5677 5681 5685 5688 5691 5693 5696 5703 5711 5714 5713 5712 5714 5716 5717 5719 5721 5723 5724 5726 5727 5729 5730 5730 5731 5732 5733 5734 5735 5736 5736 5737 5739 5739 5736 5734 5734 5733 5732 5731 5730 5729 5727 5725 5724 5722 5721 5719 5717 5715 5713 5710 5708 5705 5702
5598 5602 5606 5609 5613 5616 5619 5623 5627 5629 5632 5636 5640 5644 5648 5653 5656 5661 5666 5670 5673 5677 5681 5685 5688 5691 5697 5704 5706 5706 5705 5707 5709 5712 5714 5716 5718 5719 5721 5722 5724 5724 5725 5727 5728 5728 5730 5731 5731 5731 5733 5735 5735 5732 5730 5729 5729 5728 5727 5726 5724 5722 5721 5719 5718 5716 5715 5713 5711 5709 5706 5703 5700 5697
5588 5592 5596 5600 5605 5608 5611 5616 5619 5621 5624 5627 5631 5635 5640 5644 5648 5653 5658 5662 5665 5669 5674 5678 5681 5685 5690 5696 5699 5700 5700 5701 5703 5707 5709 5711 5714 5715 5716 5718 5719 5720 5721 5723 5723 5722 5725 5727 5726 5726 5728 5730 5730 5728 5726 5725 5724 5724 5723 5721 5719 5717 5716 5715 5713 5712 5711 5709 5707 5704 5701 5698 5695 5691
5579 5583 5587 5591 5595 5599 5604 5608 5611 5614 5616 5618 5621 5626 5631 5636 5640 5644 5650 5654 5658 5662 5668 5671 5675 5679 5683 5688 5693 5695 5695 5696 5698 5701 5705 5707 5709 5710 5711 5713 5714 5715 5716 5718 5718 5718 5721 5723 5722 5721 5723 5724 5724 5723 5722 5720 5719 5719 5718 5716 5714 5713 5712 5710 5709 5708 5706 5704 5702 5700 5696 5693 5689 5686
5569 5573 5578 5582 5586 5591 5597 5600 5603 5606 5608 5610 5613 5618 5623 5628 5632 5637 5643 5648 5652 5657 5661 5665 5670 5674 5677 5682 5686 5688 5689 5691 5693 5696 5700 5702 5703 5705 5707 5708 5709 5710 5711 5712 5713 5714 5716 5718 5717 5717 5718 5719 5718 5719 5719 5716 5714 5714 5713 5711 5710 5709 5708 5706 5705 5703 5701 5699 5697 5695 5691 5688 5684 5681
5560 5564 5569 5574 5578 5584 5589 5592 5595 5598 5601 5603 5606 5609 5614 5619 5625 5631 5638 5642 5646 5651 5655 5659 5664 5668 5672 5676 5680 5682 5684 5687 5689 5691 5694 5696 5697 5699 5702 5704 5705 5706 5707 5708 5709 5710 5711 5713 5713 5712 5713 5714 5713 5714 5715 5713 5710 5709 5708 5707 5706 5705 5703 5701 5700 5698 5697 5695 5693 5690 5686 5683 5680 5676
5552 5556 5561 5566 5571 5576 5581 5585 5588 5591 5594 5596 5599 5602 5606 5612 5617 5624 5631 5635 5639 5644 5648 5652 5657 5662 5666 5670 5672 5676 5679 5682 5683 5686 5689 5691 5692 5695 5697 5699 5700 5702 5703 5703 5704 5705 5706 5708 5709 5708 5708 5708 5708 5709 5710 5709 5706 5705 5703 5702 5702 5700 5698 5696 5695 5693 5691 5689 5687 5684 5680 5677 5674 5671
5544 5548 5553 5558 5563 5568 5573 5577 5580 5584 5587 5589 5592 5595 5600 5604 5609 5617 5623 5626 5631 5636 5640 5644 5650 5655 5659 5662 5665 5670 5674 5676 5678 5681 5683 5685 5687 5690 5692 5694 5695 5698 5699 5700 5700 5700 5701 5703 5704 5703 5703 5703 5703 5705 5705 5703 5702 5701 5698 5697 5697 5696 5694 5692 5690 5689 5686 5684 5681 5678 5675 5671 5668 5665
5536 5541 5545 5550 5555 5560 5565 5569 5573 5576 5579 5582 5586 5589 5592 5596 5602 5610 5614 5617 5622 5627 5632 5637 5642 5647 5651 5656 5660 5665 5669 5671 5673 5674 5676 5678 5682 5685 5687 5688 5691 5694 5695 5695 5694 5695 5696 5698 5698 5698 5698 5698 5698 5700 5700 5698 5697 5696 5694 5692 5692 5691 5690 5688 5686 5684 5682 5680 5677 5674 5670 5666 5663 5660
5528 5533 5537 5543 5548 5553 5558 5562 5566 5569 5572 5576 5580 5583 5586 5590 5596 5602 5606 5609 5615 5620 5625 5630 5636 5641 5645 5650 5654 5659 5663 5665 5667 5669 5670 5673 5677 5680 5682 5684 5687 5689 5688 5688 5689 5690 5691 5692 5693 5693 5694 5693 5693 5694 5694 5693 5693 5692 5690 5688 5687 5686 5684 5682 5680 5679 5676 5673 5671 5668 5665 5661 5658 5655
5521 5526 5530 5535 5540 5545 5550 5554 5558 5562 5565 5570 5574 5578 5581 5585 5590 5594 5598 5603 5608 5614 5619 5625 5630 5634 5639 5643 5647 5652 5657 5660 5662 5664 5666 5669 5672 5675 5677 5680 5681 5681 5681 5682 5684 5686 5687 5688 5689 5689 5689 5689 5688 5688 5688 5688 5688 5687 5685 5684 5683 5682 5680 5677 5675 5673 5670 5667 5665 5662 5659 5656 5653 5649
5514 5519 5523 5527 5532 5537 5542 5546 5551 5555 5559 5564 5570 5573 5577 5580 5584 5588 5592 5596 5602 5608 5613 5619 5624 5628 5632 5637 5642 5647 5652 5655 5658 5660 5662 5665 5668 5670 5673 5674 5675 5675 5676 5678 5680 5681 5682 5683 5684 5684 5684 5684 5683 5683 5683 5683 5683 5682 5680 5678 5678 5677 5675 5672 5670 5667 5665 5662 5659 5656 5653 5650 5647 5643
5508 5512 5516 5520 5525 5530 5535 5539 5544 5549 5554 5560 5564 5568 5571 5574 5578 5582 5586 5590 5596 5601 5607 5613 5618 5622 5627 5632 5637 5642 5646 5649 5652 5654 5657 5660 5663 5665 5667 5668 5668 5670 5672 5674 5675 5676 5677 5678 5679 5680 5680 5679 5679 5678 5678 5677 5678 5677 5676 5674 5672 5671 5669 5667 5664 5662 5659 5656 5654 5651 5648 5644 5641 5637
5502 5506 5510 5514 5518 5523 5528 5533 5538 5543 5549 5554 5558 5562 5565 5568 5573 5577 5581 5585 5589 5595 5600 5606 5612 5617 5623 5628 5632 5636 5640 5643 5646 5649 5652 5655 5657 5660 5661 5662 5663 5665 5667 5668 5670 5671 5673 5674 5675 5676 5675 5674 5674 5674 5673 5673 5672 5672 5671 5670 5668 5666 5664 5661 5659 5657 5654 5651 5648 5645 5642 5639 5635 5631
5499 5503 5506 5509 5513 5518 5522 5528 5533 5539 5544 5548 5552 5556 5559 5564 5568 5572 5576 5580 5584 5589 5594 5601 5607 5612 5617 5622 5627 5631 5635 5638 5642 5644 5647 5649 5652 5654 5656 5657 5659 5660 5662 5664 5666 5667 5668 5670 5671 5671 5670 5670 5669 5669 5669 5668 5668 5667 5666 5665 5663 5660 5658 5656 5654 5651 5649 5646 5643 5640 5637 5633 5629 5624
5496 5499 5503 5507 5511 5515 5520 5525 5530 5535 5540 5544 5548 5552 5556 5561 5565 5568 5572 5576 5580 5585 5591 5597 5602 5607 5612 5617 5621 5626 5630 5634 5637 5639 5642 5644 5647 5649 5651 5652 5654 5656 5658 5660 5661 5662 5664 5665 5666 5666 5666 5665 5665 5665 5664 5664 5663 5662 5661 5660 5658 5655 5653 5651 5649 5647 5644 5641 5638 5634 5631 5627 5623 5619
5492 5496 5500 5504 5509 5513 5518 5523 5528 5533 5537 5542 5546 5550 5555 5558 5562 5565 5569 5573 5576 5581 5586 5592 5597 5603 5609 5613 5616 5620 5625 5629 5632 5635 5637 5639 5642 5644 5646 5647 5649 5652 5654 5655 5657 5658 5660 5661 5661 5661 5661 5661 5660 5660 5660 5659 5658 5657 5656 5654 5653 5651 5649 5647 5645 5642 5639 5636 5632 5629 5625 5621 5617 5613
5489 5493 5497 5501 5506 5511 5516 5521 5526 5531 5535 5539 5544 5547 5551 5555 5558 5562 5566 5569 5572 5577 5581 5587 5592 5599 5605 5608 5611 5616 5620 5624 5628 5631 5633 5635 5638 5640 5641 5643 5645 5648 5649 5651 5653 5655 5656 5656 5656 5656 5656 5656 5656 5656 5655 5654 5653 5652 5651 5649 5648 5646 5644 5642 5640 5637 5634 5630 5627 5623 5618 5615 5611 5607
5486 5491 5495 5499 5503 5508 5513 5518 5523 5527 5532 5536 5540 5543 5547 5551 5555 5559 5562 5565 5568 5572 5577 5582 5588 5595 5599 5602 5606 5611 5616 5619 5623 5627 5630 5631 5634 5635 5637 5639 5641 5644 5646 5648 5649 5650 5651 5651 5652 5652 5652 5652 5651 5650 5650 5649 5648 5647 5646 5644 5643 5641 5639 5637 5634 5632 5628 5625 5621 5617 5613 5609 5605 5601
5483 5488 5492 5496 5500 5505 5510 5514 5519 5523 5527 5532 5535 5539 5543 5547 5551 5554 5557 5561 5564 5568 5573 5578 5584 5590 5594 5598 5602 5607 5612 5616 5620 5623 5625 5627 5628 5630 5633 5635 5638 5640 5642 5644 5645 5646 5646 5647 5647 5648 5648 5647 5646 5645 5645 5644 5643 5642 5641 5640 5638 5636 5634 5632 5629 5626 5623 5620 5616 5612 5608 5604 5600 5596
5481 5484 5488 5492 5497 5501 5506 5510 5515 5519 5523 5527 5531 5534 5538 5542 5545 5549 5552 5556 5560 5564 5569 5575 5580 5586 5590 5594 5599 5604 5609 5613 5616 5618 5620 5621 5623 5626 5629 5632 5635 5637 5639 5640 5640 5641 5642 5643 5644 5644 5643 5642 5641 5641 5640 5639 5639 5638 5636 5635 5633 5631 5629 5626 5623 5620 5617 5614 5610 5607 5603 5599 5595 5591
5478 5481 5485 5489 5494 5498 5502 5506 5511 5515 5518 5522 5526 5530 5534 5538 5541 5545 5549 5552 5556 5561 5567 5573 5578 5583 5587 5591 5596 5601 5605 5609 5611 5613 5615 5617 5620 5624 5627 5629 5631 5633 5634 5635 5636 5637 5638 5639 5639 5639 5638 5637 5637 5636 5636 5635 5634 5634 5632 5630 5628 5626 5623 5620 5617 5615 5612 5608 5605 5601 5598 5594 5591 5587
5476 5480 5484 5488 5492 5496 5499 5503 5506 5510 5514 5519 5522 5526 5531 5534 5538 5541 5545 5548 5552 5558 5565 5571 5575 5579 5583 5589 5594 5599 5602 5604 5606 5608 5611 5614 5617 5621 5623 5626 5627 5629 5630 5631 5632 5634 5634 5635 5634 5634 5634 5633 5632 5632 5631 5631 5630 5629 5628 5626 5623 5620 5618 5615 5612 5609 5606 5603 5599 5596 5592 5589 5586 5582
5476 5479 5483 5486 5490 5493 5497 5500 5504 5508 5512 5516 5520 5524 5528 5531 5535 5538 5542 5545 5550 5556 5562 5567 5571 5576 5581 5587 5592 5595 5597 5598 5601 5604 5608 5611 5614 5617 5620 5622 5623 5624 5626 5627 5628 5629 5630 5630 5630 5629 5629 5629 5628 5628 5627 5626 5626 5624 5623 5621 5618 5615 5612 5610 5607 5604 5601 5598 5594 5591 5588 5584 5581 5577
5475 5478 5482 5485 5489 5492 5495 5499 5503 5506 5510 5514 5518 5522 5526 5529 5533 5536 5540 5543 5548 5553 5558 5563 5568 5574 5580 5585 5589 5591 5593 5595 5598 5602 5606 5609 5612 5614 5616 5617 5619 5621 5622 5623 5624 5625 5625 5625 5625 5625 5625 5625 5624 5623 5623 5622 5621 5619 5617 5615 5613 5610 5607 5605 5602 5599 5596 5593 5590 5587 5583 5580 5576 5573
5475 5478 5481 5484 5488 5491 5494 5498 5501 5505 5509 5512 5516 5519 5523 5527 5531 5535 5538 5542 5546 5550 5556 5561 5566 5572 5577 5581 5585 5588 5590 5593 5596 5600 5604 5607 5609 5610 5612 5613 5615 5617 5619 5620 5620 5620 5620 5621 5621 5621 5621 5620 5620 5619 5618 5617 5616 5614 5612 5609 5606 5604 5601 5599 5597 5594 5591 5589 5586 5583 5579 5576 5572 5568
5475 5478 5481 5484 5487 5490 5494 5497 5500 5504 5508 5511 5514 5518 5521 5525 5529 5533 5537 5541 5545 5550 5555 5560 5565 5570 5574 5578 5581 5584 5587 5590 5595 5599 5602 5604 5605 5606 5608 5610 5612 5614 5615 5615 5615 5616 5616 5616 5617 5617 5616 5616 5615 5615 5614 5613 5611 5609 5606 5603 5601 5598 5596 5594 5591 5588 5585 5582 5580 5578 5575 5571 5568 5564
5475 5477 5481 5484 5487 5490 5493 5496 5499 5503 5507 5511 5514 5518 5521 5524 5528 5532 5536 5541 5545 5550 5554 5559 5563 5567 5571 5575 5578 5580 5584 5589 5593 5596 5598 5600 5601 5603 5605 5607 5609 5610 5611 5611 5611 5612 5612 5612 5613 5613 5612 5612 5611 5610 5608 5607 5606 5603 5601 5598 5596 5594 5592 5589 5587 5584 5581 5577 5574 5572 5569 5566 5562 5559
Wind_Speed
63 64 64 64 63 61 60 58 57 57 56 54 51 54 60 60 59 62 65 64 61 58 56 56 55 53 50 44 41 40 39 40 43 43 41 39 39 39 39 39 40 40 40 39 38 39 39 39 39 38 38 37 38 37 37 37 36 37 39 41 41 42 44 44 43 40 37 36 35 34 34 34 35 36
62 63 64 65 65 63 61 60 60 60 59 57 53 53 58 60 61 62 64 66 65 63 60 59 57 55 51 46 44 43 41 42 44 42 39 39 39 40 41 41 41 41 40 39 38 38 38 38 38 38 37 37 37 37 37 37 37 39 40 41 41 43 44 43 42 39 38 37 36 36 35 35 36 38
60 62 63 64 65 65 64 62 62 62 60 57 53 52 54 57 61 62 63 65 67 65 65 63 59 56 54 50 47 46 45 45 45 42 39 39 40 41 41 41 41 41 40 39 38 38 38 38 37 37 37 37 37 37 37 37 38 40 41 41 42 44 44 43 40 38 38 38 37 37 36 37 38 39
58 60 62 63 64 65 66 65 64 62 61 59 55 52 51 53 56 58 57 56 56 57 63 64 61 59 57 53 52 51 49 49 47 43 39 39 41 41 40 40 40 39 39 38 38 38 38 38 38 38 37 38 38 38 38 38 39 41 41 42 43 44 44 42 39 38 38 38 38 37 37 38 39 41
57 59 61 62 62 63 65 66 66 64 62 62 59 55 53 52 52 54 54 51 47 49 55 59 62 63 59 56 57 56 53 51 50 44 40 42 44 42 40 39 39 38 38 38 38 38 39 38 38 38 38 38 39 39 39 40 41 42 42 42 43 44 43 41 39 38 38 39 39 38 38 39 40 42
57 58 59 61 61 62 63 64 66 66 65 64 62 59 58 57 54 53 52 50 46 44 47 52 56 61 60 57 58 59 56 55 52 46 43 46 46 43 41 40 39 39 39 39 39 39 39 39 39 39 39 39 40 40 40 41 42 43 43 43 44 44 42 40 39 38 38 39 40 39 39 40 42 44
56 57 58 60 61 61 62 63 64 66 67 67 65 61 60 60 58 55 54 52 48 43 43 46 49 52 55 57 59 59 58 57 55 50 47 49 47 43 42 41 40 40 40 40 40 41 41 41 40 40 41 41 41 41 42 42 43 44 44 44 44 43 41 39 38 38 39 40 40 39 40 41 43 45
55 56 56 58 60 61 61 62 63 65 67 68 67 65 63 61 59 58 57 57 55 51 48 47 45 46 50 54 57 59 59 59 56 52 51 51 48 44 43 42 41 41 41 41 41 42 41 42 42 42 42 42 42 42 43 43 44 44 44 44 44 43 41 39 39 39 40 41 40 40 41 42 44 46
54 55 56 56 57 60 61 61 62 64 66 67 67 67 67 64 62 60 59 59 60 60 57 52 48 48 48 48 51 55 57 57 56 54 52 50 47 45 43 42 42 42 42 42 42 42 42 43 43 43 43 43 43 43 43 43 44 43 43 43 44 42 41 39 39 39 41 41 40 41 42 43 45 46
54 55 56 56 56 58 60 61 62 63 65 65 66 67 67 67 65 63 61 61 62 63 61 56 54 54 50 47 48 52 56 57 55 55 53 51 48 46 43 42 43 43 43 42 42 42 43 44 44 43 43 43 43 43 43 43 43 43 42 43 43 42 40 39 39 40 41 41 41 42 43 44 46 46
55 55 56 57 56 56 58 60 61 62 64 64 64 65 66 66 65 64 63 63 62 62 60 57 58 60 57 51 48 49 53 55 55 55 54 52 48 44 41 41 43 44 44 44 43 43 44 44 43 43 44 44 44 43 42 42 42 42 41 42 42 41 40 40 40 41 41 41 42 42 44 45 46 45
56 56 57 57 57 56 56 58 60 62 63 63 63 64 64 63 64 64 65 65 64 63 59 57 59 62 61 55 50 49 50 51 52 53 52 50 46 43 42 42 44 45 45 45 44 43 44 44 43 44 45 44 43 42 41 41 41 40 39 40 41 42 41 40 40 41 42 42 42 43 44 46 46 45
57 58 58 58 58 57 56 57 59 61 63 63 62 63 63 62 62 61 62 64 65 64 60 58 60 63 61 56 51 51 50 48 50 50 49 49 48 46 45 44 46 47 45 43 42 42 44 44 44 45 45 43 41 40 40 40 39 37 37 39 41 41 40 39 40 41 42 42 42 43 45 45 45 45
59 59 59 59 60 59 57 57 58 60 63 63 62 61 61 61 61 60 61 62 63 63 62 62 64 64 62 56 51 51 50 47 47 48 48 50 51 48 46 45 46 45 43 41 42 43 44 45 45 44 42 40 39 39 38 39 37 36 37 39 39 39 39 40 41 42 42 42 43 44 45 44 44 46
60 60 61 61 61 61 59 58 57 59 61 63 62 61 60 60 59 59 61 62 59 58 60 65 67 65 61 56 52 53 52 49 46 47 49 52 51 48 46 45 44 42 41 42 43 43 44 44 43 42 40 38 38 39 39 38 36 35 36 38 38 39 40 41 42 42 41 42 43 44 43 42 44 47
61 61 62 62 62 62 60 59 58 58 59 62 63 61 60 60 60 59 61 61 59 56 58 64 67 65 60 54 52 53 53 52 51 51 52 53 51 47 45 44 43 41 41 42 43 43 43 42 42 41 38 37 37 39 37 35 33 35 37 39 40 41 41 42 42 42 41 42 43 42 41 42 45 48
62 62 63 63 63 62 61 60 59 57 58 60 62 63 62 61 61 62 62 60 58 58 59 61 64 65 60 53 50 50 52 53 54 54 54 54 51 48 45 43 42 41 41 43 43 43 42 42 41 40 39 37 35 34 34 33 34 37 39 42 43 43 42 42 42 41 41 41 40 38 40 43 46 49
63 63 63 63 63 62 62 60 59 58 57 58 61 63 63 62 62 62 62 62 60 58 58 59 62 65 62 54 49 49 51 53 54 54 53 52 50 47 44 42 41 41 42 43 43 42 41 40 40 40 39 36 31 31 34 35 37 39 41 44 45 43 41 41 41 40 40 39 37 38 41 44 47 49
63 63 63 63 63 62 62 60 58 58 57 57 59 62 63 63 63 63 62 63 63 60 57 56 59 62 61 56 53 53 55 56 55 53 51 49 47 45 44 42 42 42 42 41 41 42 41 39 40 41 39 33 31 34 37 39 39 41 44 46 45 41 40 40 40 40 39 37 37 39 43 45 47 49
62 62 62 62 62 62 61 59 58 57 57 58 59 61 63 64 65 64 63 63 64 63 60 57 58 60 59 56 55 57 59 60 58 54 50 47 45 44 45 44 43 42 41 40 41 43 42 39 39 41 39 35 35 37 39 41 43 44 46 47 44 40 40 40 40 40 39 37 39 41 45 47 48 50
61 61 61 62 62 62 60 58 57 57 57 57 58 60 62 64 66 66 65 64 64 63 62 60 60 60 59 57 56 57 59 61 60 56 51 47 44 45 46 46 44 43 41 41 44 45 42 40 41 42 41 39 39 40 41 44 45 46 48 47 43 41 41 40 40 40 39 39 42 44 47 49 50 51
59 60 60 61 62 61 58 57 57 56 55 56 57 59 60 63 65 66 65 64 63 62 62 62 61 60 60 58 57 57 58 59 59 58 53 48 47 48 48 47 45 44 42 43 44 44 42 42 43 43 42 41 42 42 43 45 47 48 48 45 42 41 41 40 41 41 41 42 45 47 48 50 51 52
58 58 59 60 61 59 57 57 56 55 54 55 56 57 58 61 64 65 64 64 64 62 61 62 63 62 61 60 60 59 57 58 59 58 53 50 49 50 49 47 45 44 43 43 44 43 42 41 42 42 42 42 43 43 43 45 48 49 47 44 43 42 41 41 42 42 42 44 46 48 49 50 51 53
55 57 58 58 59 58 56 56 56 54 53 54 55 56 56 59 62 64 64 65 64 63 62 63 65 65 64 63 64 62 59 58 58 56 53 52 51 51 48 46 45 44 43 43 43 43 42 40 40 41 41 42 43 43 43 45 47 46 45 44 43 41 42 43 44 43 44 46 48 49 51 52 53 54
53 55 56 57 58 57 55 55 55 54 53 55 55 54 53 56 60 63 65 66 65 64 64 65 66 67 67 66 65 62 60 59 58 55 54 54 52 50 46 43 43 43 43 43 42 42 42 41 40 41 43 44 45 44 43 45 45 44 45 45 42 41 42 43 44 44 45 47 48 50 52 53 54 55
51 53 55 56 56 56 55 55 55 54 55 56 55 53 52 54 57 61 64 67 67 66 65 65 65 67 68 67 64 61 60 59 56 55 55 54 52 50 45 41 41 43 44 45 45 44 43 42 43 45 47 49 49 47 45 44 44 43 45 45 43 42 43 44 44 44 45 47 49 51 53 54 54 56
50 52 54 55 55 55 54 55 55 55 56 56 54 53 52 52 53 56 61 66 68 67 66 65 64 65 67 67 64 62 59 56 53 52 53 52 51 48 44 42 44 46 48 50 49 45 43 43 46 49 50 50 49 48 46 45 43 43 44 44 43 43 44 45 45 45 47 49 51 52 53 54 55 56
50 51 53 54 55 54 55 56 56 56 57 56 54 53 52 50 49 51 58 64 67 67 66 65 63 63 65 66 65 64 60 54 51 51 51 50 49 46 43 44 46 48 51 52 50 46 44 45 47 47 47 48 49 48 47 46 44 43 42 42 43 43 44 45 46 47 48 50 52 52 53 54 55 56
48 50 53 54 55 56 57 57 57 58 58 56 53 51 50 49 48 49 55 62 66 66 65 64 63 63 63 64 63 63 61 57 54 53 53 53 51 47 44 46 49 51 52 52 50 48 47 47 48 47 47 48 49 48 47 45 44 42 42 43 43 43 44 45 46 47 49 50 51 52 53 54 55 57
44 47 50 53 55 56 57 58 58 58 57 54 52 50 50 49 48 48 51 57 63 65 64 64 63 61 61 62 61 61 61 60 57 54 54 55 52 47 45 49 53 54 54 52 50 49 49 50 50 49 48 48 48 46 45 44 43 41 41 42 44 44 44 45 46 47 49 50 51 52 53 54 56 57
41 43 46 50 52 54 56 57 57 57 55 53 52 51 51 50 48 47 48 53 58 62 63 63 62 60 60 61 61 61 60 60 58 56 55 55 52 48 48 52 54 54 53 51 49 48 48 48 48 47 47 47 46 45 44 43 42 41 41 42 44 44 44 45 46 47 49 49 50 52 53 54 55 56
38 39 41 45 49 52 54 55 56 55 55 53 53 53 52 49 47 46 47 50 56 62 63 62 60 59 59 60 62 63 61 59 58 57 56 54 52 49 50 53 53 51 50 48 46 46 45 44 44 44 45 45 44 43 42 41 41 41 41 42 43 43 44 45 46 47 48 50 51 52 53 54 55 55
37 37 37 40 44 47 50 52 53 53 53 53 52 51 49 47 45 44 44 47 52 58 61 60 59 59 58 59 62 62 60 59 59 57 55 53 51 49 51 53 51 49 47 47 46 46 45 45 45 45 44 44 43 42 40 40 40 41 42 42 42 42 43 45 46 47 49 50 51 52 53 54 54 55
38 36 36 38 40 43 46 48 49 49 50 49 48 47 45 44 43 42 42 43 47 53 56 57 58 57 56 57 60 60 60 60 57 52 50 51 49 50 52 53 52 50 48 47 46 46 46 46 44 43 42 41 40 39 39 39 40 40 41 41 41 42 43 44 46 47 48 49 50 51 53 53 54 55
39 37 37 39 41 43 44 45 46 46 46 45 44 44 45 44 43 42 42 42 44 49 53 56 58 57 54 55 58 59 60 60 55 48 46 46 46 49 52 52 50 48 46 45 44 44 43 42 40 40 39 38 38 37 38 38 39 39 39 40 40 42 43 44 46 47 48 49 50 51 52 53 54 54
40 39 39 40 42 43 44 44 44 44 45 44 44 45 45 45 44 43 42 42 43 46 51 55 57 57 55 57 59 57 55 56 54 51 49 46 46 50 53 52 48 46 44 43 41 39 38 37 37 37 37 36 36 36 36 36 37 38 38 39 40 42 43 44 46 47 48 49 50 51 52 52 53 53
40 41 41 42 43 44 43 43 44 44 45 45 45 46 46 46 45 44 43 42 42 45 50 55 57 56 56 57 58 55 51 51 52 53 52 50 50 53 54 51 49 47 44 41 37 36 35 35 35 35 35 35 34 34 35 35 36 37 38 39 40 41 42 44 46 48 49 50 50 51 51 52 52 53
39 42 43 43 44 44 44 44 45 45 46 46 46 46 46 46 45 44 43 41 41 45 50 53 54 55 54 53 51 50 50 51 52 52 52 52 52 52 50 48 47 44 40 36 34 33 33 33 33 33 33 33 32 32 33 34 35 37 38 39 40 41 43 45 46 48 49 50 50 51 51 51 51 52
38 41 42 43 43 44 44 45 45 45 46 46 45 45 44 43 43 43 42 41 42 45 48 49 49 50 51 49 46 46 49 52 53 53 53 53 53 51 47 44 40 36 34 33 32 32 32 31 32 32 32 31 31 31 32 34 35 37 38 40 41 42 43 45 46 47 48 49 49 50 50 50 50 51
34 36 36 37 38 39 40 41 41 41 41 41 40 39 39 39 40 40 40 41 43 45 46 48 49 50 48 46 45 46 50 53 55 54 51 50 49 47 42 37 34 32 32 31 30 30 30 30 30 31 30 30 30 31 32 34 36 37 39 40 41 41 43 44 46 46 47 47 48 49 49 49 50 50
27 28 30 31 32 34 35 35 35 35 34 34 35 36 36 37 38 38 39 41 45 48 50 51 52 49 45 43 44 47 51 54 55 52 48 45 44 41 37 34 32 32 31 29 28 28 28 29 29 29 29 29 29 31 33 35 37 38 40 40 40 41 42 44 44 45 46 47 48 48 48 49 49 50
23 25 27 28 28 30 30 31 31 31 31 33 34 35 37 40 40 40 40 42 46 49 51 51 49 45 42 42 43 45 51 55 54 49 46 43 40 36 33 32 31 30 28 28 27 27 28 28 27 27 27 28 30 32 34 36 37 39 39 39 40 41 42 43 44 45 46 46 47 47 47 47 48 48
24 25 25 25 26 28 29 29 30 31 32 32 32 32 35 39 41 41 42 44 45 46 47 48 46 43 43 44 43 45 51 57 53 45 41 39 36 33 32 31 29 28 27 27 27 27 26 26 25 26 28 29 31 32 34 35 37 37 38 38 39 40 41 42 43 45 45 46 46 46 46 47 47 48
25 25 25 25 26 27 28 30 32 32 31 31 30 29 30 32 34 36 37 39 41 42 43 44 43 42 43 45 44 46 53 56 51 43 40 38 35 33 32 30 28 27 26 26 25 24 23 23 25 27 28 30 31 32 34 35 36 36 37 37 38 39 40 42 42 43 44 45 45 45 46 46 47 48
25 25 26 27 27 26 28 32 34 32 31 32 32 32 32 33 34 33 34 36 38 39 39 39 40 41 43 44 44 46 50 52 48 44 43 40 36 34 32 30 28 26 25 23 22 21 22 24 26 28 29 31 32 33 34 35 36 37 37 37 38 39 40 41 42 42 42 43 44 44 45 46 47 47
Wind_Direction
246 246 245 245 245 246 248 248 247 248 246 242 241 239 238 240 245 247 248 249 248 247 247 248 249 250 251 252 253 254 253 253 254 255 257 258 260 261 262 263 266 268 270 273 276 278 280 282 283 285 287 289 291 294 297 299 299 298 301 304 306 307 308 309 309 309 308 307 307 307 309 311 313 313
245 247 246 246 246 245 246 247 247 248 248 244 240 240 239 239 242 247 250 250 249 248 247 246 247 249 250 249 250 252 252 252 253 255 256 257 258 260 261 263 266 268 270 274 276 278 280 280 282 284 285 287 290 293 296 297 296 297 300 302 303 305 307 307 307 307 306 306 306 306 307 310 311 312
243 245 247 246 246 246 245 246 246 247 249 246 239 236 239 241 241 244 247 249 250 249 248 246 246 248 248 248 248 249 250 251 253 254 256 258 259 260 262 265 267 269 271 273 276 277 278 279 281 282 284 286 289 292 294 295 295 295 298 300 301 303 305 305 305 305 305 304 304 304 305 308 309 311
242 242 245 246 246 246 245 245 245 245 248 249 244 238 240 241 240 238 239 243 246 247 247 246 245 245 246 246 246 247 249 251 253 255 257 259 260 260 263 265 267 269 271 273 274 275 276 278 279 281 282 285 287 290 293 294 294 294 296 298 299 301 303 303 303 303 303 303 302 302 304 306 308 309
244 242 242 244 245 246 245 245 245 244 245 248 248 247 246 243 239 238 238 241 245 246 249 247 244 243 243 244 245 246 248 251 253 255 256 257 258 260 262 264 266 268 269 271 273 274 275 277 278 280 281 284 287 290 292 293 294 294 294 295 297 299 301 301 301 302 302 302 301 301 303 305 307 308
246 244 242 242 243 244 244 244 245 244 243 244 246 248 249 248 245 240 238 242 246 246 250 250 247 244 242 242 246 247 248 250 253 253 254 256 257 259 261 263 264 266 268 270 271 273 275 277 278 279 281 284 286 288 291 293 293 293 293 294 296 298 299 298 299 301 302 301 300 301 303 305 307 308
247 246 244 242 242 243 242 242 243 243 243 242 242 243 247 249 249 245 239 239 240 241 246 251 252 250 245 242 245 248 248 250 252 252 252 254 256 258 260 261 263 265 267 268 270 272 274 276 277 278 280 283 285 287 290 292 291 292 293 293 295 297 297 297 299 301 301 301 301 301 303 305 307 308
246 246 246 244 243 242 242 241 241 242 243 242 242 241 243 245 248 249 245 241 240 240 245 251 256 255 249 243 243 246 248 250 250 250 251 252 254 255 257 260 262 263 265 266 269 272 274 275 276 278 280 282 284 287 290 290 290 291 292 292 294 296 295 296 299 300 301 301 301 302 304 306 308 309
245 245 245 245 244 243 242 241 240 241 241 242 242 241 241 242 244 246 247 246 246 246 247 253 257 256 252 247 246 246 248 251 251 250 250 251 252 253 255 258 260 261 263 266 268 271 273 274 275 277 279 281 283 286 288 288 289 290 291 293 294 294 294 296 299 300 301 301 301 302 304 306 308 310
245 245 245 244 244 244 243 242 240 240 240 241 242 242 242 241 242 244 246 247 249 250 250 252 254 254 252 251 252 252 251 251 251 250 249 250 250 250 252 255 258 260 263 266 268 271 272 273 274 276 278 280 282 284 286 287 287 289 291 293 293 293 294 296 298 300 301 301 301 302 304 306 308 309
246 246 246 245 244 243 243 243 242 241 240 240 241 242 242 242 242 243 245 246 247 249 252 251 251 252 253 253 255 257 255 252 252 251 250 250 249 249 250 252 256 259 263 266 269 270 271 271 272 274 276 279 281 284 285 285 286 289 292 292 292 292 294 296 298 300 301 301 300 301 304 306 308 309
246 245 246 246 245 242 241 242 243 242 241 239 239 240 241 242 241 241 243 245 245 246 250 251 250 251 253 252 253 258 260 259 257 255 253 251 250 248 248 251 255 259 262 266 268 268 269 270 271 273 276 279 281 283 284 285 287 290 292 292 293 293 294 296 298 299 301 300 299 301 304 306 307 307
248 246 246 246 246 244 242 241 242 242 242 240 239 239 240 241 241 240 241 244 244 244 245 247 249 249 249 250 251 256 262 261 255 253 253 253 251 248 248 251 255 259 262 264 266 266 267 269 272 274 277 278 280 281 283 285 288 289 291 293 295 295 295 296 298 299 300 299 299 302 304 306 306 307
249 247 246 245 246 246 243 241 240 241 241 240 239 238 239 240 240 239 240 242 243 242 241 243 245 247 248 250 251 254 259 259 254 251 253 254 253 250 249 252 255 259 261 262 264 265 267 270 273 275 277 278 279 281 283 285 286 287 291 295 297 297 297 297 298 299 299 298 300 303 305 305 306 306
249 247 246 245 245 245 244 243 241 240 240 240 239 238 237 239 239 238 239 242 242 240 238 240 243 245 247 249 250 251 255 257 257 255 255 256 255 252 251 252 255 257 259 260 262 264 268 271 273 274 275 276 278 281 283 282 281 285 292 298 301 301 298 297 299 299 298 299 301 304 305 306 307 307
248 246 245 244 244 245 244 244 243 241 240 239 238 237 236 236 237 236 237 240 241 239 238 239 241 243 245 246 249 251 253 255 256 257 258 258 256 252 251 252 253 255 257 258 261 264 267 268 270 272 273 275 278 281 280 276 278 287 297 302 304 303 299 298 299 299 299 301 302 304 306 307 307 308
248 245 244 243 242 244 244 244 244 243 241 239 237 236 235 234 234 234 234 237 239 239 239 239 240 242 243 245 248 250 251 252 253 255 259 259 255 252 252 251 251 253 255 257 260 262 263 266 269 271 273 275 277 275 273 274 280 290 297 301 303 301 298 297 298 299 300 302 303 305 307 308 308 309
248 245 243 241 241 242 243 243 244 244 242 239 236 235 234 233 233 233 232 233 235 236 236 237 239 241 243 244 246 248 250 251 251 253 257 258 254 252 252 252 251 252 254 258 261 260 261 266 270 271 273 274 271 268 271 277 284 290 295 300 301 299 296 297 299 300 301 302 303 305 307 308 309 310
248 245 242 240 239 240 242 242 243 244 243 241 237 234 232 232 233 232 232 232 233 232 232 234 238 240 241 240 241 244 248 249 250 253 256 255 253 252 253 253 252 253 254 258 260 260 261 266 269 271 273 270 265 267 273 279 284 289 295 299 299 297 296 297 299 300 300 300 302 305 307 308 309 311
246 244 241 239 238 238 240 241 242 244 244 242 238 233 231 231 232 231 230 232 232 231 230 232 236 238 238 238 239 242 246 249 251 253 254 253 253 254 255 255 254 254 254 254 256 259 263 267 269 272 273 268 264 269 275 280 284 289 294 298 297 295 296 298 299 300 299 299 301 304 307 308 308 310
245 242 239 238 237 236 237 239 240 243 244 243 240 234 230 229 230 230 229 230 231 231 229 229 232 235 237 237 239 242 245 248 251 252 250 251 254 255 255 256 255 254 253 251 254 260 264 266 268 272 273 270 268 270 275 279 284 288 294 296 295 294 296 297 298 299 298 298 301 303 306 307 308 310
243 240 237 236 236 235 235 236 239 241 244 244 241 235 231 228 229 229 229 229 230 231 230 229 229 232 235 236 237 239 242 245 250 251 248 249 253 254 255 255 254 253 252 251 254 260 263 264 266 270 272 270 270 272 274 278 283 290 294 294 291 292 294 295 297 298 298 299 301 302 305 306 307 309
242 237 235 234 234 233 232 234 238 240 243 244 242 237 233 229 227 227 228 229 229 230 230 229 228 230 233 234 234 237 241 246 250 250 247 247 251 254 255 255 253 252 250 251 255 260 263 265 266 267 269 268 270 273 275 277 284 291 292 290 289 291 293 294 295 296 297 299 300 301 303 305 306 308
239 235 233 232 232 231 231 233 236 239 242 242 241 239 235 231 227 225 226 228 228 228 229 228 227 228 229 230 233 237 240 245 248 247 245 247 251 253 254 252 250 250 250 251 256 260 263 265 265 265 265 266 269 271 274 280 286 290 289 287 288 290 292 293 295 297 299 301 302 302 304 306 307 308
235 233 232 231 230 229 229 231 235 238 240 240 240 239 237 233 227 223 224 226 226 226 227 227 227 227 228 230 232 235 238 243 245 243 243 246 249 250 250 249 249 251 250 251 255 260 262 264 264 264 264 266 268 270 275 283 289 288 286 286 287 288 290 292 294 297 300 301 302 303 305 306 307 307
232 230 230 229 229 228 228 230 233 236 237 237 236 236 236 233 227 223 223 225 225 224 225 227 227 228 229 230 232 233 236 240 241 240 241 243 245 247 245 245 249 251 247 247 254 261 261 260 261 263 265 266 267 270 278 286 288 286 285 286 287 289 290 292 294 297 299 299 299 302 305 306 306 307
229 228 228 228 228 228 228 230 232 234 234 232 231 232 234 233 228 225 224 224 224 224 224 225 227 228 228 228 229 231 234 237 239 242 244 244 243 242 241 243 249 251 247 248 255 260 259 258 260 262 263 265 267 272 280 286 285 283 283 285 288 290 292 293 296 298 298 298 299 302 305 305 305 306
226 226 226 227 227 227 227 229 230 230 230 228 227 229 232 232 229 227 225 223 224 224 224 225 226 227 228 227 226 228 232 236 239 243 246 246 243 238 237 243 249 250 249 251 255 256 255 256 259 261 262 266 270 276 282 284 283 282 282 284 287 290 292 295 297 298 298 299 301 303 304 304 305 306
226 225 225 226 226 226 226 227 227 226 225 225 225 227 230 231 230 228 226 224 223 223 224 224 225 227 228 227 226 228 232 236 240 242 246 248 243 235 236 244 247 248 250 253 255 254 252 253 257 262 268 271 274 278 282 282 281 281 283 286 289 291 294 296 297 297 299 300 301 303 303 304 305 306
225 225 225 225 225 225 224 223 222 221 221 221 221 223 227 229 230 229 228 226 224 223 223 223 224 226 227 226 226 228 231 234 237 239 245 245 238 232 238 244 246 248 251 253 254 253 253 254 257 263 269 272 274 278 280 280 280 282 284 288 291 293 295 296 297 299 300 301 302 303 303 304 306 308
222 222 223 224 223 221 220 218 216 215 216 217 218 221 224 227 228 229 229 227 225 224 223 222 222 224 226 226 226 227 231 235 235 239 244 241 231 230 238 244 246 249 251 252 252 254 255 256 259 263 268 271 275 277 278 278 280 283 286 289 291 293 295 297 299 300 300 301 302 302 303 305 308 310
221 221 221 221 219 216 214 212 211 211 213 215 216 219 222 225 227 228 229 228 225 223 222 221 221 222 224 226 226 227 232 235 237 241 244 236 226 229 238 242 245 249 250 249 251 253 255 258 261 265 269 273 275 275 276 278 281 284 288 290 292 294 296 298 299 300 300 301 302 303 305 308 311 312
221 220 219 218 216 212 209 208 208 210 212 214 216 219 223 225 226 229 230 229 226 224 222 220 219 220 223 225 226 228 231 234 239 244 239 227 222 230 237 241 244 247 248 249 251 252 255 259 264 268 271 272 273 274 276 279 283 286 289 290 292 294 297 298 298 299 300 302 303 306 309 311 312 313
219 217 214 212 210 208 207 208 209 210 213 215 218 222 225 227 228 230 232 231 228 225 222 219 218 218 222 225 227 229 230 233 239 241 232 223 226 233 237 240 244 246 248 250 252 254 258 262 265 267 268 270 272 275 278 281 284 287 288 290 292 295 296 297 298 300 303 305 308 310 312 313 313 313
217 216 212 208 206 207 208 209 210 212 215 218 220 223 225 227 230 232 233 233 230 225 221 218 216 216 219 223 227 230 230 232 237 236 227 225 233 237 237 239 242 245 248 250 253 257 260 262 263 265 266 269 273 275 278 282 284 286 288 290 292 294 295 297 300 303 307 310 312 313 313 313 314 314
214 214 212 209 207 208 209 210 212 215 217 220 221 223 225 227 229 232 233 234 232 225 219 216 215 215 218 222 225 229 231 233 237 237 230 228 233 234 235 238 242 244 248 252 255 258 260 259 261 263 266 270 273 276 279 282 284 286 288 290 292 293 296 299 303 307 310 312 312 313 313 313 314 313
214 215 214 213 211 211 212 213 215 218 221 222 223 225 227 228 230 231 231 232 231 225 218 214 214 217 220 223 226 229 231 233 236 235 231 232 235 234 235 239 243 246 250 254 255 256 256 257 262 265 268 271 274 277 280 283 284 286 288 290 292 294 298 302 306 309 311 312 312 313 313 313 313 313
216 216 216 216 216 216 216 217 219 222 223 225 226 227 228 228 228 228 229 229 228 222 216 213 214 217 221 225 228 230 232 235 236 232 230 234 237 237 238 241 244 246 250 251 250 252 255 260 264 267 269 273 276 279 282 284 285 287 288 290 293 296 300 304 307 309 311 312 312 313 313 313 313 312
217 219 218 219 219 220 220 220 222 223 224 225 226 227 226 226 226 226 226 226 222 216 213 213 215 218 221 224 225 228 232 235 233 230 230 234 236 236 238 241 243 245 246 246 248 253 258 262 265 268 272 275 277 280 283 284 286 288 290 292 295 298 302 306 308 309 311 312 312 313 313 312 312 311
215 218 219 220 220 220 220 220 220 221 222 222 221 220 220 222 224 225 224 220 214 209 207 210 215 219 221 221 223 229 231 228 225 225 229 232 233 234 237 240 241 242 243 245 250 255 258 263 267 271 274 276 277 279 282 284 286 289 291 293 296 300 304 307 308 310 311 312 312 312 312 311 311 311
212 214 216 218 218 217 216 215 213 212 212 213 213 214 215 217 219 221 219 214 210 206 205 208 214 219 219 218 223 227 225 221 220 224 227 230 232 235 237 238 239 240 243 246 250 255 260 265 270 272 273 275 277 280 282 285 287 289 290 293 298 302 305 307 309 311 311 311 311 311 311 311 311 311
206 209 209 209 208 207 204 202 201 202 205 209 212 214 214 213 212 214 213 210 209 208 209 212 216 218 216 217 222 223 220 219 222 227 229 231 233 234 233 234 237 240 243 247 252 258 263 267 269 271 273 276 278 281 283 285 287 290 293 297 301 304 307 309 310 311 310 310 310 309 309 310 310 310
195 196 195 194 194 195 195 195 198 201 205 207 206 207 208 208 208 209 210 210 210 210 212 215 217 217 216 219 223 224 223 222 223 226 229 230 230 229 229 233 237 241 246 252 257 261 263 265 267 271 274 276 279 281 283 286 289 293 297 300 304 307 309 310 310 309 308 308 308 309 309 309 309 309
185 185 185 186 189 194 197 199 200 202 203 202 199 198 199 201 205 210 212 212 214 215 216 216 217 217 218 222 228 232 229 224 222 226 230 229 228 228 230 234 239 245 251 256 257 258 260 264 268 272 274 276 279 282 285 289 293 297 300 304 306 308 309 308 308 307 307 308 308 308 308 309 309 310
181 182 183 185 188 194 199 200 198 199 200 199 198 200 202 203 206 213 216 216 218 219 219 218 218 219 222 226 232 234 228 222 222 228 230 228 228 229 230 234 241 247 251 252 253 257 262 267 272 275 277 279 282 285 290 294 297 300 303 306 307 307 306 306 306 307 307 307 307 308 308 309 310 311